Temperatura ambiente en Pisuerga en Salinas de Pisuerga

 
Fecha y horaTemperatura ambiente (ºC)
01/10/2019 02:0010,05
01/10/2019 03:009,05
01/10/2019 04:009,45
01/10/2019 05:008,90
01/10/2019 06:008,80
01/10/2019 07:007,90
01/10/2019 08:006,80
01/10/2019 09:009,10
01/10/2019 10:0012,30
01/10/2019 11:0016,60
01/10/2019 12:0019,05
01/10/2019 13:0020,35
01/10/2019 14:0021,85
01/10/2019 15:0022,85
01/10/2019 16:0022,80
01/10/2019 17:0021,25
01/10/2019 18:0019,75
01/10/2019 19:0016,10
01/10/2019 20:0013,10
01/10/2019 21:0011,90
01/10/2019 22:0011,05
01/10/2019 23:0011,55
02/10/2019 00:0011,40
02/10/2019 01:0011,45
02/10/2019 02:0011,00
02/10/2019 03:009,95
02/10/2019 04:008,90
02/10/2019 05:007,75
02/10/2019 06:007,40
02/10/2019 07:005,65
02/10/2019 08:004,75
02/10/2019 09:006,40
02/10/2019 10:009,00
02/10/2019 11:0013,20
02/10/2019 12:0014,85
02/10/2019 13:0016,60
02/10/2019 14:0016,40
02/10/2019 15:0017,20
02/10/2019 16:0017,70
02/10/2019 17:0017,35
02/10/2019 18:0016,70
02/10/2019 19:0014,45
02/10/2019 20:0011,40
02/10/2019 21:0010,15
02/10/2019 22:008,40
02/10/2019 23:007,30
03/10/2019 00:007,85
03/10/2019 01:008,50
03/10/2019 02:008,90
03/10/2019 03:009,00
03/10/2019 04:009,30
03/10/2019 05:009,00
03/10/2019 06:008,85
03/10/2019 07:007,60
03/10/2019 08:006,90
03/10/2019 09:006,60
03/10/2019 10:007,35
03/10/2019 11:0010,25
03/10/2019 12:0015,55
03/10/2019 13:0019,15
03/10/2019 14:0021,20
03/10/2019 15:0022,40
03/10/2019 16:0022,35
03/10/2019 17:0022,60
03/10/2019 18:0022,15
03/10/2019 19:0019,30
03/10/2019 20:0014,95
03/10/2019 21:0012,45
03/10/2019 22:0010,00
03/10/2019 23:008,85
04/10/2019 00:007,80
04/10/2019 01:007,10
04/10/2019 02:007,10
04/10/2019 03:006,85
04/10/2019 04:006,60
04/10/2019 05:006,30
04/10/2019 06:005,50
04/10/2019 07:005,10
04/10/2019 08:005,00
04/10/2019 09:007,65
04/10/2019 10:0011,40
04/10/2019 11:0015,85
04/10/2019 12:0018,15
04/10/2019 13:0019,30
04/10/2019 14:0020,50
04/10/2019 15:0021,85
04/10/2019 16:0022,05
04/10/2019 17:0020,50
04/10/2019 18:0018,65
04/10/2019 19:0015,95
04/10/2019 20:0013,05
04/10/2019 21:0011,65
04/10/2019 22:0010,00
04/10/2019 23:008,80
05/10/2019 00:009,55
05/10/2019 01:009,95
05/10/2019 02:0010,50
05/10/2019 03:0010,90
05/10/2019 04:0010,80
05/10/2019 05:0010,65
05/10/2019 06:0010,10
05/10/2019 07:009,65
05/10/2019 08:009,00
05/10/2019 09:008,75
05/10/2019 10:009,10
05/10/2019 11:0012,95
05/10/2019 12:0017,35
05/10/2019 13:0020,75
05/10/2019 14:0022,40
05/10/2019 15:0023,10
05/10/2019 16:0023,35
05/10/2019 17:0023,30
05/10/2019 18:0023,35
05/10/2019 19:0017,75
05/10/2019 20:0014,25
05/10/2019 21:0012,40
05/10/2019 22:0011,65
05/10/2019 23:0010,50
06/10/2019 00:0010,90
06/10/2019 01:0010,85
06/10/2019 02:0010,60
06/10/2019 03:0010,35
06/10/2019 04:0010,50
06/10/2019 05:009,80
06/10/2019 06:009,10
06/10/2019 07:008,05
06/10/2019 08:008,10
06/10/2019 09:008,75
06/10/2019 10:0010,25
06/10/2019 11:0012,25
06/10/2019 12:0015,65
06/10/2019 13:0018,10
06/10/2019 14:0018,80
06/10/2019 15:0019,55
06/10/2019 16:0019,45
06/10/2019 17:0018,40
06/10/2019 18:0017,35
06/10/2019 19:0014,30
06/10/2019 20:0012,20
06/10/2019 21:0011,05
06/10/2019 22:009,50
06/10/2019 23:009,05
07/10/2019 00:009,95
07/10/2019 01:0010,40
07/10/2019 02:0010,30
07/10/2019 03:0010,30
07/10/2019 04:009,80
07/10/2019 05:008,80
07/10/2019 06:007,25
07/10/2019 07:006,20
07/10/2019 08:006,05
07/10/2019 09:008,10
07/10/2019 10:0011,60
07/10/2019 11:0015,85
07/10/2019 12:0018,70
07/10/2019 13:0020,30
07/10/2019 14:0022,35
07/10/2019 15:0023,20
07/10/2019 16:0023,30
07/10/2019 17:0023,35
07/10/2019 18:0022,65
07/10/2019 19:0019,20
07/10/2019 20:0013,90
07/10/2019 21:0011,75
07/10/2019 22:0010,55
07/10/2019 23:009,30
08/10/2019 00:008,65
08/10/2019 01:008,20
08/10/2019 02:008,50
08/10/2019 03:007,15
08/10/2019 04:007,55
08/10/2019 05:007,60
08/10/2019 06:007,40
08/10/2019 07:006,50
08/10/2019 08:006,50
08/10/2019 09:008,90
08/10/2019 10:0013,40
08/10/2019 11:0019,20
08/10/2019 12:0022,70
08/10/2019 13:0024,80
08/10/2019 14:0025,90
08/10/2019 15:0026,60
08/10/2019 16:0026,15
08/10/2019 17:0023,60
08/10/2019 18:0020,50
08/10/2019 19:0016,55
08/10/2019 20:0014,00
08/10/2019 21:0012,55
08/10/2019 22:0011,30
08/10/2019 23:0010,40
09/10/2019 00:0011,15
09/10/2019 01:0011,60
09/10/2019 02:0011,90
09/10/2019 03:0011,55
09/10/2019 04:0011,60
09/10/2019 05:0011,00
09/10/2019 06:0010,35
09/10/2019 07:009,90
09/10/2019 08:009,45
09/10/2019 09:0010,05
09/10/2019 10:0011,40
09/10/2019 11:0013,35
09/10/2019 12:0015,15
09/10/2019 13:0016,35
09/10/2019 14:0016,80
09/10/2019 15:0017,45
09/10/2019 16:0016,25
09/10/2019 17:0015,45
09/10/2019 18:0014,20
09/10/2019 19:0011,25
09/10/2019 20:009,75
09/10/2019 21:007,65
09/10/2019 22:006,10
09/10/2019 23:005,35
10/10/2019 00:004,15
10/10/2019 01:003,60
10/10/2019 02:003,40
10/10/2019 03:004,15
10/10/2019 04:005,05
10/10/2019 05:005,00
10/10/2019 06:003,90
10/10/2019 07:002,15
10/10/2019 08:001,45
10/10/2019 09:004,05
10/10/2019 10:007,70
10/10/2019 11:0012,00
10/10/2019 12:0014,50
10/10/2019 13:0016,35
10/10/2019 14:0017,40
10/10/2019 15:0019,05
10/10/2019 16:0019,50
10/10/2019 17:0019,90
10/10/2019 18:0020,05
10/10/2019 19:0015,65
10/10/2019 20:0011,65
10/10/2019 21:009,35
10/10/2019 22:007,95
10/10/2019 23:007,05
11/10/2019 00:006,10
11/10/2019 01:005,25
11/10/2019 02:005,00
11/10/2019 03:005,05
11/10/2019 04:005,30
11/10/2019 05:004,55
11/10/2019 06:003,85
11/10/2019 07:003,25
11/10/2019 08:003,30
11/10/2019 09:005,85
11/10/2019 10:0010,70
11/10/2019 11:0016,40
11/10/2019 12:0021,55
11/10/2019 13:0023,60
11/10/2019 14:0024,00
11/10/2019 15:0024,30
11/10/2019 16:0024,25
11/10/2019 17:0024,10
11/10/2019 18:0023,60
11/10/2019 19:0021,55
11/10/2019 20:0015,85
11/10/2019 21:0014,10
11/10/2019 22:0013,95
11/10/2019 23:0014,80
12/10/2019 00:0013,90
12/10/2019 01:0012,85
12/10/2019 02:0011,20
12/10/2019 03:0010,00
12/10/2019 04:009,60
12/10/2019 05:009,10
12/10/2019 06:009,60
12/10/2019 07:009,00
12/10/2019 08:0012,90
12/10/2019 09:0014,85
12/10/2019 10:0016,95
12/10/2019 11:0019,00
12/10/2019 12:0020,75
12/10/2019 13:0022,40
12/10/2019 14:0023,70
12/10/2019 15:0024,20
12/10/2019 16:0024,40
12/10/2019 17:0024,30
12/10/2019 18:0023,75
12/10/2019 19:0022,70
12/10/2019 20:0021,90
12/10/2019 21:0020,50
12/10/2019 22:0019,10
12/10/2019 23:0019,65
13/10/2019 00:0019,35
13/10/2019 01:0018,35
13/10/2019 02:0017,50
13/10/2019 03:0016,20
13/10/2019 04:0015,25
13/10/2019 05:0015,10
13/10/2019 06:0014,90
13/10/2019 07:0014,55
13/10/2019 08:0013,55
13/10/2019 09:0013,60
13/10/2019 10:0014,30
13/10/2019 11:0014,95
13/10/2019 12:0016,55
13/10/2019 13:0017,25
13/10/2019 14:0016,55
13/10/2019 15:0018,20
13/10/2019 16:0019,50
13/10/2019 17:0019,50
13/10/2019 18:0019,35
13/10/2019 19:0018,50
13/10/2019 20:0017,15
13/10/2019 21:0016,10
13/10/2019 22:0014,90
13/10/2019 23:0014,15
14/10/2019 00:0013,50
14/10/2019 01:0013,60
14/10/2019 02:0014,50
14/10/2019 03:0014,65
14/10/2019 04:0014,80
14/10/2019 05:0014,50
14/10/2019 06:0013,15
14/10/2019 07:0011,40
14/10/2019 08:0010,50
14/10/2019 09:0011,85
14/10/2019 10:0012,35
14/10/2019 11:0010,00
14/10/2019 12:0010,90
14/10/2019 13:0011,30
14/10/2019 14:0010,25
14/10/2019 15:009,50
14/10/2019 16:0010,00
14/10/2019 17:009,80
14/10/2019 18:009,10
14/10/2019 19:008,50
14/10/2019 20:007,25
14/10/2019 21:007,05
14/10/2019 22:005,90
14/10/2019 23:005,20
15/10/2019 00:004,75
15/10/2019 01:004,05
15/10/2019 02:003,20
15/10/2019 03:001,95
15/10/2019 04:000,95
15/10/2019 05:000,40
15/10/2019 06:000,10
15/10/2019 07:000,00
15/10/2019 08:000,25
15/10/2019 09:001,60
15/10/2019 10:005,05
15/10/2019 11:007,90
15/10/2019 12:009,10
15/10/2019 13:0010,40
15/10/2019 14:0011,20
15/10/2019 15:0012,25
15/10/2019 16:0010,40
15/10/2019 17:0010,70
15/10/2019 18:0010,50
15/10/2019 19:009,50
15/10/2019 20:009,40
15/10/2019 21:008,90
15/10/2019 22:008,90
15/10/2019 23:008,90
16/10/2019 00:008,80
16/10/2019 01:008,90
16/10/2019 02:009,00
16/10/2019 03:008,95
16/10/2019 04:008,90
16/10/2019 05:008,70
16/10/2019 06:008,55
16/10/2019 07:008,20
16/10/2019 08:008,20
16/10/2019 09:008,20
16/10/2019 10:008,30
16/10/2019 11:008,60
16/10/2019 12:008,90
16/10/2019 13:009,30
16/10/2019 14:0010,05
16/10/2019 15:0010,15
16/10/2019 16:0010,45
16/10/2019 17:0010,60
16/10/2019 18:0010,50
16/10/2019 19:0010,00
16/10/2019 20:0010,50
16/10/2019 21:0010,50
16/10/2019 22:0010,60
16/10/2019 23:0010,70
17/10/2019 00:0010,60
17/10/2019 01:0010,60
17/10/2019 02:0010,50
17/10/2019 03:0010,50
17/10/2019 04:0010,40
17/10/2019 05:0010,10
17/10/2019 06:009,95
17/10/2019 07:009,90
17/10/2019 08:0010,10
17/10/2019 09:0010,45
17/10/2019 10:0011,00
17/10/2019 11:0012,00
17/10/2019 12:0013,30
17/10/2019 13:0015,25
17/10/2019 14:0016,20
17/10/2019 15:0017,30
17/10/2019 16:0016,75
17/10/2019 17:0016,65
17/10/2019 18:0016,25
17/10/2019 19:0014,90
17/10/2019 20:0013,70
17/10/2019 21:0013,00
17/10/2019 22:0011,95
17/10/2019 23:0010,90
18/10/2019 00:0010,90
18/10/2019 01:0011,80
18/10/2019 02:0012,15
18/10/2019 03:0012,05
18/10/2019 04:0010,90
18/10/2019 05:009,35
18/10/2019 06:008,90
18/10/2019 07:008,75
18/10/2019 08:009,15
18/10/2019 09:009,60
18/10/2019 10:0010,20
18/10/2019 11:0012,25
18/10/2019 12:0013,10
18/10/2019 13:0014,30
18/10/2019 14:0014,30
18/10/2019 15:0014,25
18/10/2019 16:0013,10
18/10/2019 17:0012,10
18/10/2019 18:0011,55
18/10/2019 19:0011,05
18/10/2019 20:0010,80
18/10/2019 21:0010,80
18/10/2019 22:0010,70
18/10/2019 23:0010,50
19/10/2019 00:0010,40
19/10/2019 01:0010,20
19/10/2019 02:009,80
19/10/2019 03:009,60
19/10/2019 04:009,30
19/10/2019 05:009,30
19/10/2019 06:009,10
19/10/2019 07:009,05
19/10/2019 08:008,90
19/10/2019 09:008,95
19/10/2019 10:008,95
19/10/2019 11:009,30
19/10/2019 12:009,65
19/10/2019 13:009,70
19/10/2019 14:009,90
19/10/2019 15:0010,15
19/10/2019 16:0010,35
19/10/2019 17:0010,20
19/10/2019 18:009,90
19/10/2019 19:0010,00
19/10/2019 20:008,35
19/10/2019 21:008,10
19/10/2019 22:007,50
19/10/2019 23:007,30
20/10/2019 00:007,55
20/10/2019 01:007,30
20/10/2019 02:007,15
20/10/2019 03:007,20
20/10/2019 04:006,60
20/10/2019 05:005,80
20/10/2019 06:005,70
20/10/2019 07:005,40
20/10/2019 08:005,00
20/10/2019 09:004,90
20/10/2019 10:004,70
20/10/2019 11:004,55
20/10/2019 12:005,10
20/10/2019 13:005,70
20/10/2019 14:006,10
20/10/2019 15:006,30
20/10/2019 16:006,75
20/10/2019 17:007,00
20/10/2019 18:006,80
20/10/2019 19:006,55
20/10/2019 20:004,85
20/10/2019 21:004,10
20/10/2019 22:003,90
20/10/2019 23:002,80
21/10/2019 00:001,80
21/10/2019 01:001,25
21/10/2019 02:000,55
21/10/2019 03:00-0,30
21/10/2019 04:00-0,30
21/10/2019 05:00-0,35
21/10/2019 06:00-0,80
21/10/2019 07:00-1,00
21/10/2019 08:00-1,20
21/10/2019 09:00-0,40
21/10/2019 10:001,20
21/10/2019 11:003,20
21/10/2019 12:005,00
21/10/2019 13:007,15
21/10/2019 14:008,65
21/10/2019 15:008,40
21/10/2019 16:009,15
21/10/2019 17:009,80
21/10/2019 18:0010,10
21/10/2019 19:007,30
21/10/2019 20:005,70
21/10/2019 21:004,90
21/10/2019 22:004,65
21/10/2019 23:004,60
22/10/2019 00:004,80
22/10/2019 01:004,90
22/10/2019 02:003,70
22/10/2019 03:002,75
22/10/2019 04:002,60
22/10/2019 05:002,40
22/10/2019 06:002,10
22/10/2019 07:001,85
22/10/2019 08:001,45
22/10/2019 09:001,40
22/10/2019 10:003,65
22/10/2019 11:006,20
22/10/2019 12:008,65
22/10/2019 13:009,00
22/10/2019 14:008,70
22/10/2019 15:008,20
22/10/2019 16:008,65
22/10/2019 17:008,40
22/10/2019 18:008,80
22/10/2019 19:007,50
22/10/2019 20:007,10
22/10/2019 21:006,65
22/10/2019 22:007,15
22/10/2019 23:006,60
23/10/2019 00:007,35
23/10/2019 01:008,75
23/10/2019 02:008,60
23/10/2019 03:009,70
23/10/2019 04:009,30
23/10/2019 05:008,90
23/10/2019 06:008,85
23/10/2019 07:009,50
23/10/2019 08:009,60
23/10/2019 09:009,30
23/10/2019 10:009,60
23/10/2019 11:008,70
23/10/2019 12:008,90
23/10/2019 13:009,10
23/10/2019 14:009,90
23/10/2019 15:0010,30
23/10/2019 16:009,90
23/10/2019 17:009,65
23/10/2019 18:008,70
23/10/2019 19:007,40
23/10/2019 20:007,10
23/10/2019 21:006,30
23/10/2019 22:006,00
23/10/2019 23:005,60
24/10/2019 00:005,05
24/10/2019 01:004,90
24/10/2019 02:004,70
24/10/2019 03:004,55
24/10/2019 04:004,60
24/10/2019 05:004,55
24/10/2019 06:004,90
24/10/2019 07:004,65
24/10/2019 08:004,65
24/10/2019 09:004,80
24/10/2019 10:005,65
24/10/2019 11:006,65
24/10/2019 12:008,70
24/10/2019 13:0011,10
24/10/2019 14:0011,65
24/10/2019 15:0012,50
24/10/2019 16:0012,90
24/10/2019 17:0012,40
24/10/2019 18:0011,45
24/10/2019 19:0011,20
24/10/2019 20:0011,10
24/10/2019 21:0010,80
24/10/2019 22:009,95
24/10/2019 23:008,75
25/10/2019 00:007,55
25/10/2019 01:006,60
25/10/2019 02:005,60
25/10/2019 03:005,10
25/10/2019 04:004,65
25/10/2019 05:005,75
25/10/2019 06:006,75
25/10/2019 07:006,00
25/10/2019 08:006,35
25/10/2019 09:007,45
25/10/2019 10:009,05
25/10/2019 11:0010,50
25/10/2019 12:0012,90
25/10/2019 13:0014,90
25/10/2019 14:0016,20
25/10/2019 15:0017,05
25/10/2019 16:0017,35
25/10/2019 17:0016,75
25/10/2019 18:0015,70
25/10/2019 19:0013,60
25/10/2019 20:0012,00
25/10/2019 21:009,75
25/10/2019 22:006,05
25/10/2019 23:005,00
26/10/2019 00:004,50
26/10/2019 01:003,70
26/10/2019 02:002,85
26/10/2019 03:002,80
26/10/2019 04:003,20
26/10/2019 05:003,70
26/10/2019 06:003,55
26/10/2019 07:003,40
26/10/2019 08:003,60
26/10/2019 09:005,40
26/10/2019 10:009,10
26/10/2019 11:0014,50
26/10/2019 12:0016,95
26/10/2019 13:0017,80
26/10/2019 14:0019,40
26/10/2019 15:0019,85
26/10/2019 16:0019,55
26/10/2019 17:0018,95
26/10/2019 18:0017,55
26/10/2019 19:0015,45
26/10/2019 20:0014,10
26/10/2019 21:009,75
26/10/2019 22:008,30
26/10/2019 23:006,85
27/10/2019 00:006,20
27/10/2019 01:006,00
27/10/2019 02:005,75
27/10/2019 02:005,80
27/10/2019 03:006,00
27/10/2019 04:006,00
27/10/2019 05:006,00
27/10/2019 06:006,65
27/10/2019 07:006,30
27/10/2019 08:006,50
27/10/2019 09:008,40
27/10/2019 10:0011,95
27/10/2019 11:0014,90
27/10/2019 12:0017,60
27/10/2019 13:0018,20
27/10/2019 14:0017,35
27/10/2019 15:0018,55
27/10/2019 16:0018,20
27/10/2019 17:0016,75
27/10/2019 18:0014,70
27/10/2019 19:0013,15
27/10/2019 20:0011,85
27/10/2019 21:0010,95
27/10/2019 22:0010,40
27/10/2019 23:009,85
28/10/2019 00:009,00
28/10/2019 01:008,90
28/10/2019 02:008,30
28/10/2019 03:008,90
28/10/2019 04:008,90
28/10/2019 05:009,15
28/10/2019 06:009,35
28/10/2019 07:009,60
28/10/2019 08:009,35
28/10/2019 09:0013,30
28/10/2019 10:0017,10
28/10/2019 11:0018,65
28/10/2019 12:0019,90
28/10/2019 13:0020,10
28/10/2019 14:0020,00
28/10/2019 15:0020,20
28/10/2019 16:0018,85
28/10/2019 17:0017,00
28/10/2019 18:0015,50
28/10/2019 19:0012,45
28/10/2019 20:0011,90
28/10/2019 21:0010,55
28/10/2019 22:009,65
28/10/2019 23:009,20
29/10/2019 00:008,35
29/10/2019 01:007,85
29/10/2019 02:007,55
29/10/2019 03:009,20
29/10/2019 04:009,70
29/10/2019 05:009,90
29/10/2019 06:0010,60
29/10/2019 07:0010,60
29/10/2019 08:009,70
29/10/2019 09:0013,70
29/10/2019 10:0014,60
29/10/2019 11:0015,65
29/10/2019 13:0016,30
29/10/2019 14:0016,70
29/10/2019 15:0016,70
29/10/2019 16:0015,95
29/10/2019 17:0015,35
29/10/2019 18:0012,85
29/10/2019 19:009,60
29/10/2019 20:008,45
29/10/2019 21:007,20
29/10/2019 22:007,05
29/10/2019 23:006,20
30/10/2019 00:006,00
30/10/2019 01:005,80
30/10/2019 02:005,75
30/10/2019 03:005,20
30/10/2019 04:004,95
30/10/2019 05:006,45
30/10/2019 06:007,35
30/10/2019 07:007,80
30/10/2019 08:008,50
30/10/2019 09:009,75
30/10/2019 10:0012,15
30/10/2019 11:0013,30
30/10/2019 12:0013,10
30/10/2019 13:0013,65
30/10/2019 14:0014,00
30/10/2019 15:0014,20
30/10/2019 16:0013,10
30/10/2019 17:0013,00
30/10/2019 18:0013,00
30/10/2019 19:0013,10
30/10/2019 20:0013,10
30/10/2019 21:0012,85
30/10/2019 22:0012,80
30/10/2019 23:0013,00
31/10/2019 00:0011,95
31/10/2019 01:0011,85
31/10/2019 02:0010,35
31/10/2019 03:009,95
31/10/2019 04:0010,00
31/10/2019 05:009,20
31/10/2019 06:008,60
31/10/2019 07:007,05
31/10/2019 08:007,25
31/10/2019 09:009,30
31/10/2019 10:0011,55
31/10/2019 11:0013,25
31/10/2019 12:0015,80
31/10/2019 13:0017,65
31/10/2019 14:0017,35
31/10/2019 15:0018,35
31/10/2019 16:0018,25
31/10/2019 17:0016,95
31/10/2019 18:0016,25
31/10/2019 19:0015,80
31/10/2019 20:0015,15
31/10/2019 21:0014,80
31/10/2019 22:0014,00
31/10/2019 23:0012,85
01/11/2019 00:0013,10
01/11/2019 01:0014,05
01/11/2019 02:0013,70
01/11/2019 03:0014,00
01/11/2019 04:0013,05
01/11/2019 05:0013,60
01/11/2019 06:0013,00
01/11/2019 07:0013,05
01/11/2019 08:0013,45
01/11/2019 09:0014,70
01/11/2019 10:0014,70
01/11/2019 11:0015,05
01/11/2019 12:0015,85
01/11/2019 13:0015,65
01/11/2019 14:0015,85
01/11/2019 15:0016,70
01/11/2019 16:0015,95
01/11/2019 17:0016,15
01/11/2019 18:0015,25
01/11/2019 19:0014,85
01/11/2019 20:0014,00
01/11/2019 21:0013,90
01/11/2019 22:0013,50
01/11/2019 23:0013,15
02/11/2019 00:0012,55
02/11/2019 01:0012,20
02/11/2019 02:0012,30
02/11/2019 03:0012,50
02/11/2019 04:0012,20
02/11/2019 05:0012,00
02/11/2019 06:0012,00
02/11/2019 07:0012,00
02/11/2019 08:0012,15
02/11/2019 09:0012,60
02/11/2019 10:0012,10
02/11/2019 11:0011,95
02/11/2019 12:0012,05
02/11/2019 13:0012,50
02/11/2019 14:0012,30
02/11/2019 15:0012,40
02/11/2019 16:0012,00
02/11/2019 17:0011,40
02/11/2019 18:0010,65
02/11/2019 19:0010,10
02/11/2019 20:009,95
02/11/2019 21:009,95
02/11/2019 22:009,05
02/11/2019 23:008,30
03/11/2019 00:008,60
03/11/2019 01:008,30
03/11/2019 02:008,20
03/11/2019 03:008,65
03/11/2019 04:009,05
03/11/2019 05:007,90
03/11/2019 06:006,25
03/11/2019 07:005,65
03/11/2019 08:005,90
03/11/2019 09:007,35
03/11/2019 10:009,80
03/11/2019 11:0011,45
03/11/2019 12:0011,60
03/11/2019 13:0012,25
03/11/2019 14:0012,75
03/11/2019 15:0014,05
03/11/2019 16:0013,75
03/11/2019 17:0010,90
03/11/2019 18:009,80
03/11/2019 19:009,35
03/11/2019 20:009,50
03/11/2019 21:009,55
03/11/2019 22:009,50
03/11/2019 23:009,80
04/11/2019 00:009,80
04/11/2019 01:0010,55
04/11/2019 02:0011,00
04/11/2019 03:0010,50
04/11/2019 04:0010,00
04/11/2019 05:009,60
04/11/2019 06:009,60
04/11/2019 07:009,60
04/11/2019 08:009,40
04/11/2019 09:009,60
04/11/2019 10:0010,70
04/11/2019 11:0012,30
04/11/2019 12:0012,70
04/11/2019 13:0012,75
04/11/2019 14:0013,25
04/11/2019 15:0012,20
04/11/2019 16:0011,25
04/11/2019 17:0010,40
04/11/2019 18:009,20
04/11/2019 19:007,60
04/11/2019 21:005,60
04/11/2019 22:005,10
04/11/2019 23:005,10
05/11/2019 00:004,90
05/11/2019 01:004,80
05/11/2019 02:004,55
05/11/2019 03:004,50
05/11/2019 04:003,95
05/11/2019 05:003,40
05/11/2019 06:003,35
05/11/2019 07:003,10
05/11/2019 08:003,40
05/11/2019 09:004,55
05/11/2019 10:004,45
05/11/2019 11:006,30
05/11/2019 12:005,00
05/11/2019 13:005,00
05/11/2019 14:005,20
05/11/2019 15:006,70
05/11/2019 16:007,00
05/11/2019 17:006,85
05/11/2019 18:006,25
05/11/2019 19:005,60
05/11/2019 20:004,85
05/11/2019 21:004,50
05/11/2019 22:004,80
05/11/2019 23:005,50
06/11/2019 00:005,90
06/11/2019 01:004,70
06/11/2019 02:004,25
06/11/2019 03:004,25
06/11/2019 04:003,40
06/11/2019 05:003,35
06/11/2019 06:003,10
06/11/2019 07:002,35
06/11/2019 08:002,30
06/11/2019 09:003,15
06/11/2019 10:004,30
06/11/2019 11:005,80
06/11/2019 12:007,70
06/11/2019 13:009,45
06/11/2019 14:009,90
06/11/2019 15:0010,10
06/11/2019 16:008,70
06/11/2019 17:008,05
06/11/2019 18:007,55
06/11/2019 19:007,45
06/11/2019 20:007,20
06/11/2019 21:007,10
06/11/2019 22:007,30
06/11/2019 23:007,50
07/11/2019 00:007,60
07/11/2019 01:007,60
07/11/2019 02:006,80
07/11/2019 03:006,60
07/11/2019 04:006,15
07/11/2019 05:005,15
07/11/2019 06:004,35
07/11/2019 07:003,70
07/11/2019 08:002,40
07/11/2019 09:004,50
07/11/2019 10:007,20
07/11/2019 11:008,05
07/11/2019 12:007,00
07/11/2019 13:006,85
07/11/2019 14:005,80
07/11/2019 15:006,25
07/11/2019 16:005,55
07/11/2019 17:004,65
07/11/2019 18:003,40
07/11/2019 19:003,30
07/11/2019 20:002,30
07/11/2019 21:001,50
07/11/2019 22:001,85
07/11/2019 23:001,55
08/11/2019 00:000,65
08/11/2019 01:000,65
08/11/2019 02:000,40
08/11/2019 03:000,25
08/11/2019 04:000,25
08/11/2019 05:000,15
08/11/2019 06:000,80
08/11/2019 07:000,80
08/11/2019 08:000,95
08/11/2019 09:001,45
08/11/2019 10:002,85
08/11/2019 11:004,50
08/11/2019 12:005,65
08/11/2019 13:005,85
08/11/2019 14:006,55
08/11/2019 15:006,90
08/11/2019 16:006,30
08/11/2019 17:004,75
08/11/2019 18:004,05
08/11/2019 19:003,45
08/11/2019 20:002,90
08/11/2019 21:003,00
08/11/2019 22:002,80
08/11/2019 23:001,95
09/11/2019 00:001,10
09/11/2019 01:000,80
09/11/2019 02:000,80
09/11/2019 03:000,80
09/11/2019 04:000,80
09/11/2019 05:001,70
09/11/2019 06:002,10
09/11/2019 07:002,30
09/11/2019 08:002,40
09/11/2019 09:003,00
09/11/2019 10:004,15
09/11/2019 11:004,55
09/11/2019 12:005,40
09/11/2019 13:006,25
09/11/2019 14:007,45
09/11/2019 15:008,65
09/11/2019 16:007,95
09/11/2019 17:007,40
09/11/2019 18:007,75
09/11/2019 19:007,25
09/11/2019 20:005,80
09/11/2019 21:003,80
09/11/2019 22:003,00
09/11/2019 23:002,40
10/11/2019 00:001,35
10/11/2019 01:001,90
10/11/2019 02:001,95
10/11/2019 03:001,50
10/11/2019 04:001,20
10/11/2019 05:001,00
10/11/2019 06:000,55
10/11/2019 07:000,95
10/11/2019 08:000,90
10/11/2019 09:000,25
10/11/2019 10:000,20
10/11/2019 11:000,75
10/11/2019 12:002,00
10/11/2019 13:003,05
10/11/2019 14:003,60
10/11/2019 15:004,20
10/11/2019 16:002,50
10/11/2019 17:002,75
10/11/2019 18:003,20
10/11/2019 19:003,30
10/11/2019 20:002,75
10/11/2019 21:002,50
10/11/2019 22:002,35
10/11/2019 23:002,30
11/11/2019 00:000,80
11/11/2019 01:000,70
11/11/2019 02:000,50
11/11/2019 03:001,10
11/11/2019 04:001,20
11/11/2019 05:001,45
11/11/2019 06:001,50
11/11/2019 07:001,40
11/11/2019 08:001,70
11/11/2019 09:002,35
11/11/2019 10:003,40
11/11/2019 11:005,50
11/11/2019 12:008,10
11/11/2019 13:008,05
11/11/2019 14:008,40
11/11/2019 15:007,75
11/11/2019 16:006,70
11/11/2019 17:005,90
11/11/2019 18:005,70
11/11/2019 19:004,55
11/11/2019 20:004,20
11/11/2019 21:003,95
11/11/2019 22:002,85
11/11/2019 23:002,00
12/11/2019 00:002,00
12/11/2019 01:002,00
12/11/2019 02:001,75
12/11/2019 03:001,45
12/11/2019 04:001,30
12/11/2019 05:001,20
12/11/2019 06:001,40
12/11/2019 07:001,00
12/11/2019 08:000,35
12/11/2019 09:002,20
12/11/2019 10:003,85
12/11/2019 11:007,15
12/11/2019 12:008,40
12/11/2019 13:009,25
12/11/2019 14:008,80
12/11/2019 15:007,90
12/11/2019 16:006,75
12/11/2019 17:005,80
12/11/2019 18:005,50
12/11/2019 19:005,30
12/11/2019 20:004,65
12/11/2019 21:004,15
12/11/2019 22:004,40
12/11/2019 23:004,60
13/11/2019 00:004,70
13/11/2019 01:004,90
13/11/2019 02:004,95
13/11/2019 03:005,00
13/11/2019 04:006,20
13/11/2019 05:006,10
13/11/2019 06:005,75
13/11/2019 07:004,85
13/11/2019 08:004,10
13/11/2019 09:006,55
13/11/2019 10:007,70
13/11/2019 11:009,35
13/11/2019 12:009,50
13/11/2019 13:009,20
13/11/2019 14:0010,60
13/11/2019 15:0010,80
13/11/2019 16:0010,55
13/11/2019 17:009,10
13/11/2019 18:008,65
13/11/2019 19:007,90
13/11/2019 20:006,80
13/11/2019 21:006,10
13/11/2019 22:005,80
13/11/2019 23:005,65
14/11/2019 00:005,70
14/11/2019 01:004,90
14/11/2019 02:002,85
14/11/2019 03:002,80
14/11/2019 04:003,00
14/11/2019 05:001,35
14/11/2019 06:000,10
14/11/2019 07:00-0,75
14/11/2019 08:00-0,55
14/11/2019 09:001,90
14/11/2019 10:003,45
14/11/2019 11:003,60
14/11/2019 12:003,30
14/11/2019 13:003,00
14/11/2019 14:002,35
14/11/2019 15:003,55
14/11/2019 16:003,50
14/11/2019 17:002,90
14/11/2019 18:001,95
14/11/2019 19:000,40
14/11/2019 20:000,40
14/11/2019 21:00-0,20
14/11/2019 22:00-0,35
14/11/2019 23:00-1,35
15/11/2019 00:00-1,90
15/11/2019 01:00-1,55
15/11/2019 02:00-1,00
15/11/2019 03:00-0,90
15/11/2019 04:00-0,50
15/11/2019 05:00-0,20
15/11/2019 06:00-0,10
15/11/2019 07:000,00
15/11/2019 08:000,10
15/11/2019 09:000,80
15/11/2019 10:001,30
15/11/2019 11:001,45
15/11/2019 12:002,35
15/11/2019 13:002,30
15/11/2019 14:002,55
15/11/2019 15:002,55
15/11/2019 16:001,25
15/11/2019 17:000,25
15/11/2019 18:000,10
15/11/2019 19:000,00
15/11/2019 20:000,30
15/11/2019 21:000,35
15/11/2019 22:000,10
15/11/2019 23:00-0,45
16/11/2019 00:00-1,30
16/11/2019 01:00-1,60
16/11/2019 02:00-1,95
16/11/2019 03:00-2,45
16/11/2019 04:00-2,80
16/11/2019 05:00-3,00
16/11/2019 06:00-3,55
16/11/2019 07:00-3,90
16/11/2019 08:00-4,75
16/11/2019 09:00-3,20
16/11/2019 10:00-0,45
16/11/2019 11:002,60
16/11/2019 12:004,00
16/11/2019 13:004,45
16/11/2019 14:003,35
16/11/2019 15:003,45
16/11/2019 16:003,40
16/11/2019 17:003,10
16/11/2019 18:002,10
16/11/2019 19:000,40
16/11/2019 20:00-0,40
16/11/2019 21:00-1,30
16/11/2019 22:00-1,60
16/11/2019 23:00-1,25
17/11/2019 00:00-0,40
17/11/2019 01:000,10
17/11/2019 02:00-0,10
17/11/2019 03:00-0,40
17/11/2019 04:00-0,80
17/11/2019 05:00-1,30
17/11/2019 06:00-1,10
17/11/2019 07:00-0,40
17/11/2019 08:000,10
17/11/2019 09:000,75
17/11/2019 10:003,15
17/11/2019 11:005,50
17/11/2019 12:006,70
17/11/2019 13:006,90
17/11/2019 14:007,35
17/11/2019 15:007,85
17/11/2019 16:007,95
17/11/2019 17:005,90
17/11/2019 18:003,95
17/11/2019 19:002,70
17/11/2019 20:002,40
17/11/2019 21:002,80
17/11/2019 22:002,45
17/11/2019 23:002,40
18/11/2019 00:002,15
18/11/2019 01:002,15
18/11/2019 02:001,65
18/11/2019 03:001,75
18/11/2019 04:002,00
18/11/2019 05:001,45
18/11/2019 06:000,70
18/11/2019 07:000,85
18/11/2019 08:001,00
18/11/2019 09:002,80
18/11/2019 10:003,80
18/11/2019 11:003,90
18/11/2019 12:006,05
18/11/2019 13:005,05
18/11/2019 14:004,65
18/11/2019 15:005,60
18/11/2019 16:005,55
18/11/2019 17:004,50
18/11/2019 18:003,95
18/11/2019 19:002,75
18/11/2019 20:001,80
18/11/2019 21:000,75
18/11/2019 22:000,40
18/11/2019 23:000,15
19/11/2019 00:00-0,20
19/11/2019 01:00-0,90
19/11/2019 02:00-1,40
19/11/2019 03:00-2,35
19/11/2019 04:00-2,60
19/11/2019 05:00-2,80
19/11/2019 06:00-3,10
19/11/2019 07:00-3,30
19/11/2019 08:00-2,70
19/11/2019 09:00-0,35
19/11/2019 10:001,00
19/11/2019 11:002,10
19/11/2019 12:003,90
19/11/2019 13:005,70
19/11/2019 14:006,30
19/11/2019 15:006,45
19/11/2019 16:005,55
19/11/2019 17:004,60
19/11/2019 18:003,50
19/11/2019 19:001,55
19/11/2019 20:000,50
19/11/2019 21:000,40
19/11/2019 22:000,75
19/11/2019 23:001,10
20/11/2019 00:001,00
20/11/2019 01:000,55
20/11/2019 02:000,25
20/11/2019 03:000,75
20/11/2019 04:000,90
20/11/2019 05:001,70
20/11/2019 06:001,90
20/11/2019 07:002,35
20/11/2019 08:003,10
20/11/2019 09:003,55
20/11/2019 10:003,50
20/11/2019 11:003,55
20/11/2019 12:003,85
20/11/2019 13:004,10
20/11/2019 14:004,40
20/11/2019 15:004,75
20/11/2019 16:004,20
20/11/2019 17:003,80
20/11/2019 18:003,50
20/11/2019 19:003,65
20/11/2019 20:004,05
20/11/2019 21:004,40
20/11/2019 22:004,35
20/11/2019 23:004,60
21/11/2019 00:004,45
21/11/2019 01:004,40
21/11/2019 02:004,20
21/11/2019 03:004,10
21/11/2019 04:004,10
21/11/2019 05:004,10
21/11/2019 06:003,90
21/11/2019 07:003,60
21/11/2019 08:003,45
21/11/2019 09:004,45
21/11/2019 10:005,45
21/11/2019 11:006,20
21/11/2019 12:006,85
21/11/2019 13:007,65
21/11/2019 14:007,80
21/11/2019 15:007,70
21/11/2019 16:006,80
21/11/2019 17:006,15
21/11/2019 18:005,60
21/11/2019 19:005,55
21/11/2019 20:003,25
21/11/2019 21:002,50
21/11/2019 22:002,00
21/11/2019 23:001,55
22/11/2019 00:001,70
22/11/2019 01:003,95
22/11/2019 02:003,90
22/11/2019 03:004,00
22/11/2019 04:004,85
22/11/2019 05:004,90
22/11/2019 06:004,55
22/11/2019 07:005,00
22/11/2019 08:004,90
22/11/2019 09:005,00
22/11/2019 10:005,65
22/11/2019 11:005,95
22/11/2019 12:006,65
22/11/2019 13:007,40
22/11/2019 14:008,95
22/11/2019 15:009,60
22/11/2019 16:009,90
22/11/2019 17:006,95
22/11/2019 18:006,75
22/11/2019 19:006,50
22/11/2019 20:006,10
22/11/2019 21:006,20
22/11/2019 22:006,30
22/11/2019 23:006,40
23/11/2019 00:006,05
23/11/2019 01:005,25
23/11/2019 02:004,75
23/11/2019 03:003,80
23/11/2019 04:002,60
23/11/2019 05:002,40
23/11/2019 06:003,10
23/11/2019 07:002,85
23/11/2019 08:002,30
23/11/2019 09:002,40
23/11/2019 10:003,75
23/11/2019 11:006,00
23/11/2019 12:006,95
23/11/2019 13:005,75
23/11/2019 14:006,10
23/11/2019 15:006,05
23/11/2019 16:006,55
23/11/2019 17:005,15
23/11/2019 18:004,30
23/11/2019 19:003,30
23/11/2019 20:003,45
23/11/2019 21:001,40
23/11/2019 22:000,40
23/11/2019 23:000,25
24/11/2019 00:002,25
24/11/2019 01:002,85
24/11/2019 02:001,65
24/11/2019 03:001,85
24/11/2019 04:000,75
24/11/2019 05:00-0,05
24/11/2019 06:00-0,90
24/11/2019 07:00-1,00
24/11/2019 08:00-0,95
24/11/2019 09:00-0,20
24/11/2019 10:001,90
24/11/2019 11:004,60
24/11/2019 12:005,85
24/11/2019 13:006,05
24/11/2019 14:005,65
24/11/2019 15:005,80
24/11/2019 16:005,75
24/11/2019 17:005,20
24/11/2019 18:005,15
24/11/2019 19:005,10
24/11/2019 20:004,70
24/11/2019 21:005,10
24/11/2019 22:005,25
24/11/2019 23:005,25
25/11/2019 00:005,55
25/11/2019 01:005,80
25/11/2019 02:005,90
25/11/2019 03:005,65
25/11/2019 04:006,50
25/11/2019 05:006,60
25/11/2019 06:006,40
25/11/2019 07:007,40
25/11/2019 08:007,70
25/11/2019 09:008,00
25/11/2019 10:008,50
25/11/2019 11:009,70
25/11/2019 12:0010,35
25/11/2019 13:0011,75
25/11/2019 14:0011,90
25/11/2019 15:0010,95
25/11/2019 16:0010,50
25/11/2019 17:009,85
25/11/2019 18:009,20
25/11/2019 19:008,70
25/11/2019 20:008,80
25/11/2019 21:008,15
25/11/2019 22:007,60
25/11/2019 23:007,75
26/11/2019 00:007,40
26/11/2019 01:007,60
26/11/2019 02:007,70
26/11/2019 03:007,45
26/11/2019 04:007,15
26/11/2019 05:006,90
26/11/2019 06:006,80
26/11/2019 07:007,40
26/11/2019 08:007,75
26/11/2019 09:008,40
26/11/2019 10:008,35
26/11/2019 11:0010,05
26/11/2019 12:0011,30
26/11/2019 13:0012,15
26/11/2019 14:0012,55
26/11/2019 15:0012,15
26/11/2019 16:0012,50
26/11/2019 17:0012,00
26/11/2019 18:0011,45
26/11/2019 19:0010,45
26/11/2019 20:009,70
26/11/2019 21:009,00
26/11/2019 22:008,10
26/11/2019 23:007,50
27/11/2019 00:006,75
27/11/2019 01:006,65
27/11/2019 02:006,70
27/11/2019 03:006,05
27/11/2019 04:005,60
27/11/2019 05:005,55
27/11/2019 06:005,65
27/11/2019 07:006,20
27/11/2019 08:006,30
27/11/2019 09:006,30
27/11/2019 10:006,60
27/11/2019 11:006,50
27/11/2019 12:007,20
27/11/2019 13:007,20
27/11/2019 14:007,70
27/11/2019 15:007,40
27/11/2019 16:007,90
27/11/2019 17:008,00
27/11/2019 18:007,55
27/11/2019 19:007,30
27/11/2019 20:007,10
27/11/2019 21:006,75
27/11/2019 22:007,05
27/11/2019 23:007,25
28/11/2019 00:007,20
28/11/2019 01:007,20
28/11/2019 02:007,20
28/11/2019 03:007,15
28/11/2019 04:007,60
28/11/2019 05:007,40
28/11/2019 06:007,40
28/11/2019 07:007,60
28/11/2019 08:007,70
28/11/2019 09:008,30
28/11/2019 10:008,70
28/11/2019 11:008,50
28/11/2019 12:009,10
28/11/2019 13:009,35
28/11/2019 14:009,85
28/11/2019 15:009,85
28/11/2019 16:009,50
28/11/2019 17:009,35
28/11/2019 18:009,05
28/11/2019 19:008,60
28/11/2019 20:008,55
28/11/2019 21:008,20
28/11/2019 22:008,25
28/11/2019 23:009,20
29/11/2019 00:009,30
29/11/2019 01:008,30
29/11/2019 02:007,35
29/11/2019 03:006,10
29/11/2019 04:005,85
29/11/2019 05:004,95
29/11/2019 06:005,05
29/11/2019 07:005,15
29/11/2019 08:005,30
29/11/2019 09:005,60
29/11/2019 10:006,15
29/11/2019 11:007,90
29/11/2019 12:009,00
29/11/2019 13:0011,25
29/11/2019 14:0011,95
29/11/2019 15:0012,40
29/11/2019 16:0011,80
29/11/2019 17:0010,35
29/11/2019 18:006,55
29/11/2019 19:004,90
29/11/2019 20:004,00
29/11/2019 21:003,20
29/11/2019 22:002,95
29/11/2019 23:003,35
30/11/2019 00:003,90
30/11/2019 01:004,45
30/11/2019 02:004,55
30/11/2019 03:005,05
30/11/2019 04:005,55
30/11/2019 05:007,85
30/11/2019 06:009,95
30/11/2019 07:009,90
30/11/2019 08:009,95
30/11/2019 09:0010,10
30/11/2019 10:0010,55
30/11/2019 11:0011,30
30/11/2019 12:0011,30
30/11/2019 13:0010,15
30/11/2019 14:008,85
30/11/2019 15:007,65
30/11/2019 16:007,65
30/11/2019 17:006,95
30/11/2019 18:005,95
30/11/2019 19:003,35
30/11/2019 20:001,65
30/11/2019 21:001,15
30/11/2019 22:001,05
30/11/2019 23:000,70
01/12/2019 00:002,70
01/12/2019 01:003,45
01/12/2019 02:003,80
01/12/2019 03:002,80
01/12/2019 04:002,70
01/12/2019 05:002,85
01/12/2019 06:003,00
01/12/2019 07:003,00
01/12/2019 08:003,20
01/12/2019 09:003,35
01/12/2019 10:003,65
01/12/2019 11:004,40
01/12/2019 12:005,65
01/12/2019 13:006,30
01/12/2019 14:006,75
01/12/2019 15:007,10
01/12/2019 16:007,30
01/12/2019 17:005,60
01/12/2019 18:004,50
01/12/2019 19:004,05
01/12/2019 20:004,00
01/12/2019 21:003,30
01/12/2019 22:002,90
01/12/2019 23:002,00
02/12/2019 00:001,75
02/12/2019 01:002,05
02/12/2019 02:001,85
02/12/2019 03:002,95
02/12/2019 04:003,25
02/12/2019 05:003,35
02/12/2019 06:003,35
02/12/2019 07:003,70
02/12/2019 08:004,20
02/12/2019 09:005,40
02/12/2019 10:006,15
02/12/2019 11:006,25
02/12/2019 12:007,10
02/12/2019 13:007,45
02/12/2019 14:007,50
02/12/2019 15:007,00
02/12/2019 16:005,35
02/12/2019 17:003,70
02/12/2019 18:002,70
02/12/2019 19:002,40
02/12/2019 20:002,25
02/12/2019 21:001,75
02/12/2019 22:000,95
02/12/2019 23:00-0,25
03/12/2019 00:00-0,45
03/12/2019 01:000,20
03/12/2019 02:000,55
03/12/2019 03:00-1,70
03/12/2019 04:000,75
03/12/2019 05:000,25
03/12/2019 06:00-0,55
03/12/2019 07:00-0,10
03/12/2019 08:000,75
03/12/2019 09:001,35
03/12/2019 10:003,25
03/12/2019 11:004,90
03/12/2019 12:006,25
03/12/2019 13:006,05
03/12/2019 14:006,70
03/12/2019 15:005,60
03/12/2019 16:003,80
03/12/2019 17:001,80
03/12/2019 18:000,35
03/12/2019 19:00-1,35
03/12/2019 20:00-1,90
03/12/2019 21:00-2,70
03/12/2019 22:00-2,70
03/12/2019 23:00-3,40
04/12/2019 00:00-3,50
04/12/2019 01:00-3,50
04/12/2019 02:00-3,40
04/12/2019 03:00-2,90
04/12/2019 04:00-2,80
04/12/2019 05:00-2,80
04/12/2019 06:00-2,35
04/12/2019 07:00-2,10
04/12/2019 08:00-2,00
04/12/2019 09:00-0,65
04/12/2019 10:000,80
04/12/2019 11:004,45
04/12/2019 12:007,95
04/12/2019 13:008,85
04/12/2019 14:0010,90
04/12/2019 15:0011,10
04/12/2019 16:009,60
04/12/2019 17:006,50
04/12/2019 18:003,15
04/12/2019 19:001,20
04/12/2019 20:00-0,25
04/12/2019 21:00-1,00
04/12/2019 22:00-1,30
04/12/2019 23:00-0,25
05/12/2019 00:004,10
05/12/2019 01:005,15
05/12/2019 02:004,85
05/12/2019 03:004,90
05/12/2019 04:005,10
05/12/2019 05:005,55
05/12/2019 06:006,35
05/12/2019 07:006,30
05/12/2019 08:006,50
05/12/2019 09:006,20
05/12/2019 10:007,35
05/12/2019 11:008,65
05/12/2019 12:008,45
05/12/2019 13:009,10
05/12/2019 14:008,80
05/12/2019 15:007,90
05/12/2019 16:007,80
05/12/2019 17:007,40
05/12/2019 18:005,60
05/12/2019 19:003,70
05/12/2019 20:002,40
05/12/2019 21:001,30
05/12/2019 22:000,20
05/12/2019 23:000,00
06/12/2019 00:00-0,15
06/12/2019 01:00-0,35
06/12/2019 02:00-1,45
06/12/2019 03:00-1,00
06/12/2019 04:00-0,80
06/12/2019 05:00-0,70
06/12/2019 06:00-1,25
06/12/2019 07:00-1,30
06/12/2019 08:00-0,95
06/12/2019 09:000,05
06/12/2019 10:001,25
06/12/2019 11:004,65
(fichero .CSV)
© 2019 saihduero.es